Weather reports worldwide

Advertisment
Spadeadam, United Kingdom (3224): temperature & dewpoint: 31.05.2020 12:00:00 - 06.06.2020 12:00:00 (BST)Spadeadam, United Kingdom (3224): temperature -20cm: 31.05.2020 12:00:00 - 06.06.2020 12:00:00 (BST)Spadeadam, United Kingdom (3224): wind speed & gusts: 31.05.2020 12:00:00 - 06.06.2020 12:00:00 (BST)Spadeadam, United Kingdom (3224): wind direction: 31.05.2020 12:00:00 - 06.06.2020 12:00:00 (BST)Spadeadam, United Kingdom (3224): reduced air pressure: 31.05.2020 12:00:00 - 06.06.2020 12:00:00 (BST)Spadeadam, United Kingdom (3224): visibility: 31.05.2020 12:00:00 - 06.06.2020 12:00:00 (BST)Spadeadam, United Kingdom (3224): precipitation: 31.05.2020 12:00:00 - 06.06.2020 12:00:00 (BST)
Date & Time tt [°C] td [°C] tt -20cm [°C] ff [km/h] ff [kn] fx [km/h] fx [kn] dd ppp [hPa] vv [km] rr [mm]
06.06.2020 12:00:00 9,2 7,8 - 28 15 59 32 N 994,2 40 0,2
06.06.2020 11:00:00 8,9 7,1 - 39 21 61 33 N 993,1 6 0,0
06.06.2020 10:00:00 8,7 7,0 12,0 39 21 68 37 N 991,8 12 0,0
06.06.2020 09:00:00 8,1 5,2 - 44 24 65 35 NNW 990,8 22 0,0
06.06.2020 08:00:00 8,2 4,7 - 39 21 55 30 NW 990,2 50 0,0
06.06.2020 07:00:00 7,4 5,3 - 26 14 - - WNW 989,9 50 0,0
06.06.2020 06:00:00 6,1 5,4 - 24 13 - - W 989,3 50 0,0
06.06.2020 05:00:00 5,8 5,4 - 26 14 - - WNW 989,0 50 0,0
06.06.2020 04:00:00 5,9 5,5 - 26 14 - - W 989,0 50 0,4
06.06.2020 03:00:00 5,5 5,2 - 24 13 - - W 989,3 10 0,2
06.06.2020 02:00:00 5,1 4,9 - 22 12 - - W 989,6 12 0,2
06.06.2020 01:00:00 4,8 4,6 - 29 16 48 26 W 989,6 10 1,6
06.06.2020 00:00:00 4,7 4,3 - 35 19 55 30 W 990,0 6 4,2
05.06.2020 23:00:00 4,9 3,9 - 37 20 57 31 W 990,5 5 3,0
05.06.2020 22:00:00 6,2 2,3 - 39 21 55 30 W 990,8 30 0,0
05.06.2020 21:00:00 7,1 1,4 - 41 22 63 34 WNW 991,0 45 0,0
05.06.2020 20:00:00 7,8 1,9 - 46 25 63 34 WNW 991,2 50 0,0
05.06.2020 19:00:00 9,2 2,7 - 35 19 57 31 WNW 991,2 45 0,0
05.06.2020 18:00:00 10,2 3,5 - 41 22 63 34 WNW 991,1 45 0,0
05.06.2020 17:00:00 10,8 4,7 - 46 25 63 34 W 991,3 40 0,2
05.06.2020 16:00:00 8,1 4,3 - 8 4 - - N 992,3 4,6 0,4
05.06.2020 15:00:00 7,8 4,6 - 26 14 48 26 NW 993,0 35 1,6
05.06.2020 14:00:00 10,7 5,1 - 26 14 55 30 WNW 993,0 35 0,2
05.06.2020 13:00:00 7,8 2,5 - 39 21 54 29 WNW 993,8 27 0,0
05.06.2020 12:00:00 10,4 3,7 - 29 16 - - NW 993,5 50 0,0
05.06.2020 11:00:00 8,4 2,6 - 24 13 - - NW 994,3 30 0,0
05.06.2020 10:00:00 8,1 2,6 12,7 29 16 - - NNW 994,7 30 0,0
05.06.2020 09:00:00 7,3 3,3 - 26 14 - - NW 995,1 50 0,0
05.06.2020 08:00:00 6,6 4,0 - 18 10 - - WNW 995,5 45 0,0
05.06.2020 07:00:00 5,1 4,0 - 13 7 - - WNW 995,8 45 0,0
05.06.2020 06:00:00 4,2 3,8 - 11 6 - - WNW 996,1 50 0,0
05.06.2020 05:00:00 4,4 3,6 - 11 6 - - NNW 996,3 50 0,0
05.06.2020 04:00:00 3,7 3,5 - 8 4 - - NNW 996,7 45 0,0
05.06.2020 03:00:00 3,9 3,4 - 4 2 - - N 997,0 0,3 0,4
05.06.2020 02:00:00 4,9 4,7 - 2 1 - - NNE 997,6 5 0,0
05.06.2020 01:00:00 5,1 4,8 - 9 5 48 26 ENE 997,8 11 0,0
05.06.2020 00:00:00 5,3 5,0 - 9 5 - - NE 998,4 4,0 0,2
04.06.2020 23:00:00 5,6 5,0 - 15 8 - - ENE 998,4 30 0,0
04.06.2020 22:00:00 5,8 5,2 - 15 8 - - ENE 998,5 17 0,8
04.06.2020 21:00:00 7,5 7,2 - 11 6 - - ENE 998,2 6 2,0
04.06.2020 20:00:00 7,9 7,4 - 15 8 - - ESE 998,2 15 1,0
04.06.2020 19:00:00 8,6 7,8 - 11 6 - - ESE 998,5 12 0,6
04.06.2020 18:00:00 10,5 7,8 - 11 6 - - WNW 998,6 50 0,0
04.06.2020 17:00:00 10,7 8,4 - 11 6 - - WSW 999,0 40 0,0
04.06.2020 16:00:00 10,3 8,1 - 16 9 - - W 1000,0 40 0,2
04.06.2020 15:00:00 11,5 7,3 - 15 8 - - W 1000,5 40 0,0
04.06.2020 14:00:00 10,8 7,9 - 11 6 - - W 1001,4 40 0,6
04.06.2020 13:00:00 9,4 6,5 - 18 10 - - W 1002,3 5 0,0
04.06.2020 12:00:00 9,5 5,5 - 13 7 - - W 1002,9 10 0,0
04.06.2020 11:00:00 9,6 5,5 - 16 9 - - WNW 1003,4 20 0,0
04.06.2020 10:00:00 9,2 6,4 13,2 13 7 - - W 1003,9 30 0,0
04.06.2020 09:00:00 7,8 5,4 - 9 5 - - WNW 1004,8 50 0,0
04.06.2020 08:00:00 7,3 5,2 - 15 8 - - W 1005,1 35 0,0
04.06.2020 07:00:00 6,2 5,2 - 4 2 - - WNW 1006,3 35 0,0
04.06.2020 06:00:00 5,6 4,9 - 5 3 - - WNW 1006,7 45 0,0
04.06.2020 05:00:00 5,4 4,8 - 5 3 - - WNW 1007,7 40 0,0
04.06.2020 04:00:00 5,5 4,7 - 4 2 - - W 1008,4 35 0,0
04.06.2020 03:00:00 5,4 4,4 - 4 2 - - N 1009,4 35 0,0
04.06.2020 02:00:00 5,4 4,7 - 8 4 - - N 1010,4 35 0,0
04.06.2020 01:00:00 5,0 3,9 - 11 6 - - NNE 1011,3 45 0,0
04.06.2020 00:00:00 6,8 5,2 - 11 6 - - NNE 1011,8 40 0,0
03.06.2020 23:00:00 6,5 5,2 - 13 7 - - NE 1012,3 45 0,0
03.06.2020 22:00:00 6,8 5,2 - 16 9 - - NNE 1012,5 50 0,0
03.06.2020 21:00:00 7,7 6,1 - 16 9 - - NNE 1012,9 45 0,0
03.06.2020 20:00:00 8,3 6,7 - 18 10 - - N 1013,1 15 0,2
03.06.2020 19:00:00 9,2 6,3 - 21 11 - - N 1013,2 45 0,0
03.06.2020 18:00:00 9,8 5,5 - 24 13 48 26 N 1013,1 50 0,0
03.06.2020 17:00:00 12,2 5,8 - 26 14 - - NNE 1013,1 40 0,0
03.06.2020 16:00:00 9,8 4,6 - 22 12 - - N 1014,0 45 0,0
03.06.2020 15:00:00 10,1 5,1 - 21 11 - - NNE 1014,1 50 0,0
03.06.2020 14:00:00 9,0 5,1 - 16 9 - - NNE 1014,6 40 0,0
03.06.2020 13:00:00 9,8 5,3 - 28 15 54 29 NNE 1014,5 26 0,0
03.06.2020 12:00:00 9,1 5,1 - 34 18 57 31 NNE 1014,5 30 0,0
03.06.2020 11:00:00 8,2 6,0 - 28 15 48 26 NNE 1014,7 40 0,0
03.06.2020 10:00:00 7,6 6,0 14,5 31 17 50 27 NNE 1014,8 45 0,0
03.06.2020 09:00:00 7,4 6,2 - 28 15 48 26 NE 1014,7 35 0,0
03.06.2020 08:00:00 7,5 6,9 - 24 13 - - NNE 1014,7 17 0,2
03.06.2020 07:00:00 7,5 7,0 - 28 15 - - NNE 1014,5 20 1,6
03.06.2020 06:00:00 7,5 6,8 - 22 12 - - NE 1014,5 7 1,6
03.06.2020 05:00:00 8,0 7,2 - 21 11 - - NE 1014,3 22 0,6
03.06.2020 04:00:00 8,5 7,7 - 22 12 - - NNE 1014,3 19 1,2
03.06.2020 03:00:00 9,4 9,0 - 16 9 - - NNE 1014,5 14 2,8
03.06.2020 02:00:00 10,0 9,5 - 15 8 - - NE 1014,6 9 0,8
03.06.2020 01:00:00 10,7 10,3 - 13 7 - - NE 1014,8 9 0,2
03.06.2020 00:00:00 11,8 11,0 - 13 7 - - E 1014,8 23 0,0
02.06.2020 23:00:00 12,7 12,2 - 8 4 - - E 1015,0 6 0,0
02.06.2020 22:00:00 12,9 12,3 - 4 2 - - NE 1015,4 12 0,0
02.06.2020 21:00:00 13,4 12,4 - 9 5 - - NE 1015,6 14 1,0
02.06.2020 20:00:00 13,8 12,1 - 8 4 - - WNW 1016,2 12 0,0
02.06.2020 19:00:00 14,3 11,5 - 13 7 - - WSW 1016,5 23 0,0
02.06.2020 18:00:00 15,4 10,3 - 15 8 - - WNW 1016,7 35 0,0
02.06.2020 17:00:00 16,0 10,1 - 21 11 - - WNW 1017,0 30 0,0
02.06.2020 16:00:00 18,2 9,8 - 18 10 - - WNW 1017,4 35 0,0
02.06.2020 15:00:00 19,6 8,8 - 21 11 - - W 1017,8 50 0,0
02.06.2020 14:00:00 22,4 9,2 - 13 7 - - SW 1017,8 35 0,0
02.06.2020 13:00:00 21,9 9,2 - 11 6 - - W 1018,6 35 0,0
02.06.2020 12:00:00 19,3 7,8 - 13 7 - - W 1019,8 50 0,0
02.06.2020 11:00:00 18,8 8,5 - 9 5 - - SW 1020,5 45 0,0
02.06.2020 10:00:00 17,4 6,8 - 11 6 - - SW 1021,2 35 -
02.06.2020 09:00:00 15,1 7,4 - 5 3 - - WSW 1021,8 45 -
02.06.2020 08:00:00 12,9 6,6 - 2 1 - - NNW 1022,5 50 0,0
02.06.2020 07:00:00 10,6 6,6 - 4 2 - - NE 1023,2 50 0,0
02.06.2020 06:00:00 8,3 5,1 - 5 3 - - NNE 1023,6 45 0,0
02.06.2020 05:00:00 6,7 4,9 - 11 6 - - NNE 1024,1 45 0,0
02.06.2020 04:00:00 7,8 5,5 - 9 5 - - NE 1024,4 50 0,0
02.06.2020 03:00:00 8,2 6,0 - 11 6 - - NE 1024,6 50 0,0
02.06.2020 02:00:00 8,1 5,9 - 9 5 - - NNE 1025,1 50 0,0
02.06.2020 01:00:00 8,6 6,8 - 9 5 - - ENE 1025,6 35 0,0
02.06.2020 00:00:00 9,3 7,0 - 11 6 - - NE 1025,7 50 0,0
01.06.2020 23:00:00 10,7 7,6 - 11 6 - - ENE 1025,7 35 0,0
01.06.2020 22:00:00 12,0 8,1 - 11 6 - - E 1025,7 45 0,0
01.06.2020 21:00:00 14,8 8,1 - 15 8 - - E 1025,2 40 0,0
01.06.2020 20:00:00 16,6 7,2 - 18 10 - - E 1025,0 45 0,0
01.06.2020 19:00:00 18,6 6,8 - 18 10 - - E 1024,8 40 0,0
01.06.2020 18:00:00 19,0 6,0 - 18 10 - - E 1024,9 50 0,0
01.06.2020 17:00:00 19,8 5,1 - 18 10 - - ENE 1025,1 45 0,0
01.06.2020 16:00:00 20,3 5,4 - 18 10 - - ENE 1025,4 50 0,0
01.06.2020 15:00:00 19,8 5,3 - 18 10 - - E 1025,6 40 0,0
01.06.2020 14:00:00 20,8 7,4 - 16 9 - - ESE 1025,6 30 0,0
01.06.2020 13:00:00 20,0 5,0 - 18 10 - - SE 1026,0 45 0,0
01.06.2020 12:00:00 19,0 2,4 - 21 11 - - SE 1026,4 35 0,0
01.06.2020 11:00:00 18,3 4,9 - 24 13 - - SE 1026,5 50 0,0
01.06.2020 10:00:00 17,6 6,1 14,2 21 11 - - SSE 1026,7 45 0,0
01.06.2020 09:00:00 16,4 7,8 - 11 6 - - E 1027,0 30 0,0
01.06.2020 08:00:00 14,0 8,6 - 11 6 - - E 1027,3 40 0,0
01.06.2020 07:00:00 11,3 7,8 - 9 5 - - NE 1027,6 35 0,0
01.06.2020 06:00:00 8,1 5,9 - 9 5 - - NE 1027,8 40 0,0
01.06.2020 05:00:00 7,7 5,2 - 9 5 - - NE 1027,5 50 0,0
01.06.2020 04:00:00 8,3 5,8 - 15 8 - - NE 1027,3 45 0,0
01.06.2020 03:00:00 8,5 6,2 - 9 5 - - NE 1027,4 40 0,0
01.06.2020 02:00:00 8,5 6,3 - 11 6 - - ENE 1027,3 35 0,0
01.06.2020 01:00:00 9,1 6,5 - 11 6 - - NE 1027,6 45 0,0
01.06.2020 00:00:00 9,9 6,8 - 11 6 - - ENE 1027,4 35 0,0
31.05.2020 23:00:00 11,2 6,7 - 15 8 - - ENE 1027,3 50 0,0
31.05.2020 22:00:00 12,0 6,4 - 13 7 - - NE 1026,9 50 0,0
31.05.2020 21:00:00 15,2 6,7 - 16 9 - - E 1026,0 45 0,0
31.05.2020 20:00:00 17,1 6,7 - 18 10 - - E 1025,4 19 0,0
31.05.2020 19:00:00 18,3 6,6 - 22 12 - - ESE 1024,9 13 0,0
31.05.2020 18:00:00 19,4 7,1 - 22 12 - - ESE 1024,6 30 0,0
31.05.2020 17:00:00 20,1 8,1 - 22 12 - - ESE 1024,4 35 0,0
31.05.2020 16:00:00 20,0 7,6 - 22 12 - - ESE 1024,6 35 0,0
31.05.2020 15:00:00 20,4 7,7 - 22 12 - - ESE 1024,8 50 0,0
31.05.2020 14:00:00 19,5 5,4 - 24 13 - - ESE 1025,0 50 0,0
31.05.2020 13:00:00 18,7 3,4 - 21 11 - - ESE 1025,4 40 0,0
31.05.2020 12:00:00 18,0 7,7 - 24 13 - - ESE 1025,5 40 0,0

tt = temperature
td = dewpoint
tt -20cm = temperature -20cm
ff = wind speed
fx = gusts
dd = wind direction
ppp = reduced air pressure
vv = visibility
rr = precipitation

Next stations